{"data":{"norad_id":59567,"epoch":"2026-05-25T03:26:12.380640Z","epoch_age_seconds":62348,"freshness":"FRESH","line1":"1 59567U 24076D   26145.14319885  .00000473  00000+0  26716-4 0  9997","line2":"2 59567  43.0022 293.9115 0001639 246.5969 113.4710 15.27574434118239","mean_motion":15.27574434,"eccentricity":0.0001639,"inclination_deg":43.0022,"raan_deg":293.9115,"arg_perigee_deg":246.5969,"mean_anomaly_deg":113.471,"bstar":2.6716e-5,"rev_number":11823,"period_min":94.267092191987,"perigee_km":481.94121156381,"apogee_km":484.19031382942,"semimajor_km":6861.2027626966,"source":"CELESTRAK","updated_at":"2026-05-25T13:38:18.984887Z"}}